Location: Ahstedt
(52.2048°N, 10.1060°E)
Time: 14:36:17
(UTC+00:00)

SMAP - Pass Details

Date: 18 January 2026
Orbit: 682 x 683 km, 98.1° (Epoch: 16 February)

Event Time Altitude Azimuth Distance (km) Brightness Sun altitude
Rises 05:12:24 0° 19° (NNE) 3,060 6.5 -18.7°
Reaches altitude 10° 05:14:47 10° 27° (NNE) 2,139 5.8 -18.4°
Maximum altitude 05:19:11 40° 97° (E) 1,013 4.5 -17.7°
Drops below altitude 10° 05:23:33 10° 167° (SSE) 2,122 5.9 -17.0°
Sets 05:25:54 0° 175° (S) 3,032 6.6 -16.7°
